Location: Kalispell
(48.1967°N, 114.3128°W)
Time: 08:02:54
(UTC-06:00)

Amateur Radio Satellites - All Passes

Search period start: 02 September 2014 07:32
Search period end: 03 September 2014 07:32
Location: Kalispell, 48.1967°N, 114.3128°W

Satellite Date Start Highest point End Downlink Frequencies (MHz)
Time Altitude Azimuth
Hamsat 02 Sep 07:34:16 07:38:38 68° 102° (ESE) 07:42:55 145.90 MHz
RS-15 02 Sep 07:34:51 07:44:40 39° 109° (ESE) 07:54:22 29.354 - 29.394 USB, Beacon 29.352 USB
JAS-2 02 Sep 07:58:21 08:03:37 89° 107° (ESE) 08:09:17 435.800 - 435.900 CW/SSB, 435.910 FM
UOSAT-12 02 Sep 08:08:11 08:11:56 23° 328° (NNW) 08:15:43 437.025 FM, 437.400 FM
SO-50 02 Sep 08:08:18 08:09:34 11° 354° (N) 08:10:51 436.795 FM
SO-67 02 Sep 08:10:52 08:13:44 24° 94° (E) 08:16:35 435.3500 MHz FM
Uosat F 02 Sep 08:17:41 08:19:04 11° 309° (NW) 08:20:27 435.120 FM
Saudisat 1A 02 Sep 08:24:48 08:28:25 25° 244° (WSW) 08:32:01 436.775 MHz
KITSAT 1 02 Sep 09:03:59 09:12:03 75° 239° (WSW) 09:20:04 435.175 FM
STRAND 1 02 Sep 09:08:09 09:10:42 14° 273° (W) 09:13:15 ?
Hamsat 02 Sep 09:11:27 09:14:06 16° 300° (WNW) 09:16:43 145.90 MHz
AO-7 02 Sep 09:13:08 09:18:01 17° 322° (NW) 09:22:54 29.400 - 29.500 MHz
SO-67 02 Sep 09:43:51 09:46:45 25° 292° (WNW) 09:49:37 435.3500 MHz FM
JAS-2 02 Sep 09:45:06 09:48:08 16° 304° (NW) 09:51:15 435.800 - 435.900 CW/SSB, 435.910 FM
RS-15 02 Sep 09:45:18 09:56:18 72° 314° (NW) 10:07:17 29.354 - 29.394 USB, Beacon 29.352 USB
SO-50 02 Sep 09:49:37 09:52:11 14° 19° (NNE) 09:54:46 436.795 FM
HO-68 02 Sep 09:50:58 09:57:07 30° 94° (E) 10:03:14 435.675 MHz FM
UOSAT-12 02 Sep 09:52:17 09:53:48 11° 352° (N) 09:55:21 437.025 FM, 437.400 FM
ISS 02 Sep 10:56:12 10:59:18 37° 146° (SE) 11:02:25 145.800 FM
KITSAT 1 02 Sep 11:01:13 11:06:06 18° 260° (W) 11:10:58 435.175 FM
UKube-1 02 Sep 11:09:15 11:13:36 66° 103° (ESE) 11:17:55 145.840 MHz, 145.915 MHz
Oscar 11 02 Sep 11:12:22 11:16:39 50° 99° (E) 11:20:53 145.825 FM, Beacon 2401.500 USB
SO-50 02 Sep 11:29:30 11:34:00 40° 42° (NE) 11:38:34 436.795 FM
UOSAT-12 02 Sep 11:33:35 11:36:01 14° 17° (NNE) 11:38:28 437.025 FM, 437.400 FM
HO-68 02 Sep 11:38:14 11:45:18 64° 293° (WNW) 11:52:20 435.675 MHz FM
FUNcube-1 02 Sep 11:45:48 11:50:12 47° 99° (E) 11:54:38 145.950 - 145.970 MHz USB
RS-15 02 Sep 12:00:57 12:10:49 36° 344° (NNW) 12:20:48 29.354 - 29.394 USB, Beacon 29.352 USB
JAS-1B 02 Sep 12:23:25 12:28:20 16° 45° (NE) 12:32:54 435.800 - 435.900 CW/SSB
ISS 02 Sep 12:32:39 12:35:57 60° 345° (NNW) 12:39:16 145.800 FM
MaSat-1 02 Sep 12:32:53 12:36:04 17° 102° (ESE) 12:39:20 437.345 MHz
Oscar 16 02 Sep 12:37:28 12:40:36 16° 56° (NE) 12:43:45 437.025 USB, Beacon 2401.1428
UKube-1 02 Sep 12:46:36 12:49:20 17° 301° (WNW) 12:52:04 145.840 MHz, 145.915 MHz
Oscar 11 02 Sep 12:49:17 12:52:31 21° 298° (WNW) 12:55:45 145.825 FM, Beacon 2401.500 USB
Uribyol 2 02 Sep 12:52:26 12:53:43 11° 50° (NE) 12:55:01 436.500 FM
SO-50 02 Sep 13:10:10 13:14:35 37° 241° (WSW) 13:19:02 436.795 FM
AO-27 02 Sep 13:11:13 13:14:05 15° 54° (NE) 13:16:58 436.795 MHz FM
UOSAT-12 02 Sep 13:13:05 13:17:31 37° 40° (NE) 13:21:53 437.025 FM, 437.400 FM
FUNcube-1 02 Sep 13:22:46 13:26:20 23° 297° (WNW) 13:29:56 145.950 - 145.970 MHz USB
HO-68 02 Sep 13:27:31 13:31:43 17° 315° (NW) 13:35:55 435.675 MHz FM
Oscar 19 02 Sep 13:38:57 13:43:52 46° 68° (ENE) 13:48:50 437.125 CW, 437.150 USB
AO-Echo 02 Sep 13:43:56 13:47:59 26° 63° (ENE) 13:51:58 ?
Gurwin Techsat 1B 02 Sep 13:55:25 13:58:47 17° 56° (NE) 14:02:09 435.225 FM
MaSat-1 02 Sep 14:07:24 14:12:26 81° 301° (WNW) 14:17:38 437.345 MHz
JAS-1B 02 Sep 14:08:11 14:17:20 54° 65° (ENE) 14:25:20 435.800 - 435.900 CW/SSB
ISS 02 Sep 14:09:47 14:13:01 45° 5° (N) 14:16:14 145.800 FM
Oscar 16 02 Sep 14:14:05 14:19:15 89° 255° (WSW) 14:24:30 437.025 USB, Beacon 2401.1428
RS-15 02 Sep 14:16:51 14:26:51 38° 18° (NNE) 14:37:03 29.354 - 29.394 USB, Beacon 29.352 USB
ITAMSAT 1 02 Sep 14:18:05 14:23:02 48° 68° (ENE) 14:27:59 435.822 SSB
Uribyol 2 02 Sep 14:27:07 14:32:11 60° 70° (ENE) 14:37:16 436.500 FM
AO-7 02 Sep 14:39:40 14:45:33 22° 44° (NE) 14:51:26 29.400 - 29.500 MHz
TMSAT-1 02 Sep 14:43:28 14:48:01 30° 63° (ENE) 14:52:34 436.925 FM
AO-27 02 Sep 14:47:40 14:52:51 84° 74° (ENE) 14:58:04 436.795 MHz FM
UOSAT-12 02 Sep 14:53:17 14:57:44 41° 240° (WSW) 15:02:07 437.025 FM, 437.400 FM
Oscar 19 02 Sep 15:19:03 15:23:25 27° 266° (W) 15:27:50 437.125 CW, 437.150 USB
AO-Echo 02 Sep 15:21:48 15:26:34 46° 261° (W) 15:31:14 ?
Gurwin Techsat 1B 02 Sep 15:32:46 15:38:05 86° 255° (WSW) 15:43:26 435.225 FM
ISS 02 Sep 15:46:35 15:49:56 80° 205° (SSW) 15:53:16 145.800 FM
MaSat-1 02 Sep 15:46:36 15:50:15 19° 321° (NW) 15:53:54 437.345 MHz
Oscar 16 02 Sep 15:56:57 15:59:23 13° 274° (W) 16:01:49 437.025 USB, Beacon 2401.1428
ITAMSAT 1 02 Sep 15:58:27 16:02:45 26° 266° (W) 16:07:05 435.822 SSB
JAS-1B 02 Sep 15:58:48 16:07:55 46° 263° (W) 16:16:02 435.800 - 435.900 CW/SSB
Uribyol 2 02 Sep 16:08:13 16:12:04 21° 269° (W) 16:15:56 436.500 FM
Uosat F 02 Sep 16:14:55 16:19:32 39° 66° (ENE) 16:24:10 435.120 FM
TMSAT-1 02 Sep 16:22:43 16:27:46 45° 262° (W) 16:32:51 436.925 FM
AO-7 02 Sep 16:28:46 16:37:03 73° 66° (ENE) 16:45:20 29.400 - 29.500 MHz
RS-15 02 Sep 16:30:08 16:41:13 77° 48° (NE) 16:52:40 29.354 - 29.394 USB, Beacon 29.352 USB
AO-27 02 Sep 16:30:14 16:33:03 15° 272° (W) 16:35:53 436.795 MHz FM
Sapphire 02 Sep 16:31:47 16:35:58 23° 108° (ESE) 16:40:10 437.095 MHz 1200 baud AX-25 AFSK
JAS-2 02 Sep 16:35:10 16:35:54 10° 51° (NE) 16:36:38 435.800 - 435.900 CW/SSB, 435.910 FM
Hamsat 02 Sep 16:59:02 16:59:57 11° 56° (NE) 17:00:52 145.90 MHz
PCSat 02 Sep 16:59:49 17:04:50 41° 114° (ESE) 17:09:55 145.825 MHz
Gurwin Techsat 1B 02 Sep 17:16:24 17:18:51 13° 274° (W) 17:21:19 435.225 FM
ISS 02 Sep 17:24:03 17:26:15 17° 223° (SW) 17:28:26 145.800 FM
OPAL 02 Sep 17:43:57 17:48:42 34° 98° (E) 17:53:24 ?
Uosat F 02 Sep 17:53:58 17:58:24 31° 264° (W) 18:02:50 435.120 FM
Sapphire 02 Sep 18:13:34 18:18:56 65° 308° (NW) 18:24:21 437.095 MHz 1200 baud AX-25 AFSK
JAS-2 02 Sep 18:14:20 18:20:03 57° 70° (ENE) 18:25:17 435.800 - 435.900 CW/SSB, 435.910 FM
AO-7 02 Sep 18:23:29 18:30:32 30° 267° (W) 18:37:37 29.400 - 29.500 MHz
Hamsat 02 Sep 18:30:48 18:35:07 75° 74° (ENE) 18:39:30 145.90 MHz
RS-15 02 Sep 18:43:04 18:52:45 37° 252° (WSW) 19:02:46 29.354 - 29.394 USB, Beacon 29.352 USB
PCSat 02 Sep 18:43:12 18:48:18 40° 315° (NW) 18:53:26 145.825 MHz
SO-67 02 Sep 18:48:09 18:50:19 16° 64° (ENE) 18:52:30 435.3500 MHz FM
OPAL 02 Sep 19:22:47 19:27:37 39° 297° (WNW) 19:32:25 ?
STRAND 1 02 Sep 19:33:18 19:37:16 22° 92° (E) 19:41:13 ?
Sapphire 02 Sep 19:59:41 20:03:26 19° 330° (NNW) 20:07:12 437.095 MHz 1200 baud AX-25 AFSK
JAS-2 02 Sep 20:00:56 20:05:30 23° 267° (W) 20:09:47 435.800 - 435.900 CW/SSB, 435.910 FM
Hamsat 02 Sep 20:09:39 20:11:38 13° 273° (W) 20:13:37 145.90 MHz
SO-67 02 Sep 20:19:47 20:23:05 40° 262° (W) 20:26:24 435.3500 MHz FM
HO-68 02 Sep 20:23:35 20:29:51 35° 58° (ENE) 20:36:08 435.675 MHz FM
PCSat 02 Sep 20:30:25 20:33:15 14° 339° (NNW) 20:36:06 145.825 MHz
UKube-1 02 Sep 20:35:01 20:36:54 13° 56° (ENE) 20:38:48 145.840 MHz, 145.915 MHz
MaSat-1 02 Sep 20:45:44 20:48:20 14° 33° (NNE) 20:50:48 437.345 MHz
STRAND 1 02 Sep 21:11:49 21:16:48 55° 290° (WNW) 21:21:47 ?
Sapphire 02 Sep 21:48:39 21:49:13 10° 357° (N) 21:49:47 437.095 MHz 1200 baud AX-25 AFSK
UKube-1 02 Sep 22:08:07 22:12:27 90° 255° (WSW) 22:16:50 145.840 MHz, 145.915 MHz
HO-68 02 Sep 22:10:14 22:17:15 59° 258° (WSW) 22:24:19 435.675 MHz FM
Oscar 11 02 Sep 22:10:43 22:15:00 61° 72° (ENE) 22:19:19 145.825 FM, Beacon 2401.500 USB
PCSat 02 Sep 22:18:23 22:19:14 10° 6° (N) 22:20:05 145.825 MHz
MaSat-1 02 Sep 22:21:43 22:26:24 64° 56° (ENE) 22:30:26 437.345 MHz
Saudisat 1A 02 Sep 22:34:00 22:37:59 34° 119° (ESE) 22:42:00 436.775 MHz
FUNcube-1 02 Sep 22:45:49 22:49:57 57° 72° (ENE) 22:54:13 145.950 - 145.970 MHz USB
Sapphire 02 Sep 23:32:04 23:35:10 15° 24° (NNE) 23:38:15 437.095 MHz 1200 baud AX-25 AFSK
KITSAT 1 02 Sep 23:35:50 23:43:29 49° 114° (ESE) 23:51:09 435.175 FM
UKube-1 02 Sep 23:48:37 23:49:19 10° 273° (W) 23:50:01 145.840 MHz, 145.915 MHz
Oscar 11 02 Sep 23:48:59 23:51:36 16° 271° (W) 23:54:15 145.825 FM, Beacon 2401.500 USB
MaSat-1 02 Sep 23:59:59 00:02:42 16° 259° (W) 00:05:13 437.345 MHz
PCSat 03 Sep 00:00:57 00:04:56 20° 32° (NNE) 00:08:54 145.825 MHz
HO-68 03 Sep 00:04:58 00:06:30 11° 278° (W) 00:08:03 435.675 MHz FM
Saudisat 1A 03 Sep 00:13:25 00:17:33 38° 318° (NW) 00:21:43 436.775 MHz
FUNcube-1 03 Sep 00:24:07 00:26:46 16° 271° (W) 00:29:27 145.950 - 145.970 MHz USB
Sapphire 03 Sep 01:14:47 01:20:01 45° 47° (NE) 01:25:13 437.095 MHz 1200 baud AX-25 AFSK
KITSAT 1 03 Sep 01:31:00 01:38:53 53° 317° (NW) 01:46:48 435.175 FM
AO-40 03 Sep 01:34:32 03:04:20 17° 220° (SW) 05:27:56 Beacon 2401.320
PCSat 03 Sep 01:43:50 01:49:18 74° 54° (NE) 01:54:43 145.825 MHz
Oscar 19 03 Sep 01:48:53 01:50:53 12° 86° (E) 01:52:53 437.125 CW, 437.150 USB
Saudisat 1A 03 Sep 01:56:17 01:58:21 13° 341° (NNW) 02:00:24 436.775 MHz
Oscar 16 03 Sep 02:22:40 02:26:57 25° 93° (E) 02:31:12 437.025 USB, Beacon 2401.1428
ITAMSAT 1 03 Sep 02:29:09 02:31:17 12° 86° (E) 02:33:25 435.822 SSB
Uribyol 2 03 Sep 02:37:23 02:40:32 16° 89° (E) 02:43:40 436.500 FM
AO-27 03 Sep 02:57:41 03:01:46 23° 92° (E) 03:05:49 436.795 MHz FM
Sapphire 03 Sep 02:58:26 03:03:21 36° 247° (WSW) 03:08:14 437.095 MHz 1200 baud AX-25 AFSK
AO-Echo 03 Sep 03:25:05 03:29:32 41° 98° (E) 03:34:00 ?
Oscar 19 03 Sep 03:25:49 03:31:03 82° 104° (ESE) 03:36:15 437.125 CW, 437.150 USB
OPAL 03 Sep 03:26:08 03:29:15 16° 52° (NE) 03:32:23 ?
PCSat 03 Sep 03:28:16 03:32:09 20° 253° (WSW) 03:36:01 145.825 MHz
SO-50 03 Sep 03:28:37 03:32:31 30° 117° (ESE) 03:36:32 436.795 FM
KITSAT 1 03 Sep 03:29:55 03:36:19 25° 344° (NNW) 03:42:44 435.175 FM
JAS-1B 03 Sep 03:41:29 03:48:00 49° 98° (E) 03:53:41 435.800 - 435.900 CW/SSB
Gurwin Techsat 1B 03 Sep 03:45:41 03:50:17 29° 94° (E) 03:54:52 435.225 FM
Oscar 16 03 Sep 04:01:32 04:06:34 50° 291° (WNW) 04:11:34 437.025 USB, Beacon 2401.1428
ITAMSAT 1 03 Sep 04:06:22 04:11:35 84° 105° (ESE) 04:16:47 435.822 SSB
Uribyol 2 03 Sep 04:15:24 04:20:37 79° 287° (WNW) 04:25:49 436.500 FM
AO-7 03 Sep 04:27:49 04:33:01 18° 86° (E) 04:38:10 29.400 - 29.500 MHz
TMSAT-1 03 Sep 04:34:29 04:39:43 56° 100° (E) 04:44:54 436.925 FM
AO-27 03 Sep 04:36:33 04:41:37 55° 291° (WNW) 04:46:40 436.795 MHz FM
OPAL 03 Sep 05:02:18 05:07:24 88° 73° (ENE) 05:12:37 ?
AO-Echo 03 Sep 05:04:15 05:08:10 27° 296° (WNW) 05:12:06 ?
Oscar 19 03 Sep 05:06:24 05:09:46 18° 303° (WNW) 05:13:08 437.125 CW, 437.150 USB
UOSAT-12 03 Sep 05:08:06 05:11:55 26° 115° (ESE) 05:15:49 437.025 FM, 437.400 FM
SO-50 03 Sep 05:08:37 05:12:57 44° 317° (NW) 05:17:24 436.795 FM
Saudisat 1A 03 Sep 05:18:00 05:21:15 19° 30° (NNE) 05:24:28 436.775 MHz
Gurwin Techsat 1B 03 Sep 05:25:23 05:30:26 45° 293° (WNW) 05:35:27 435.225 FM
KITSAT 1 03 Sep 05:28:33 05:34:51 24° 14° (NNE) 05:41:07 435.175 FM
JAS-1B 03 Sep 05:32:27 05:38:25 33° 302° (WNW) 05:43:41 435.800 - 435.900 CW/SSB
ITAMSAT 1 03 Sep 05:47:09 05:50:26 17° 304° (NW) 05:53:44 435.822 SSB
Uribyol 2 03 Sep 05:56:38 05:59:17 14° 306° (NW) 06:01:57 436.500 FM
Uosat F 03 Sep 05:57:08 06:02:07 61° 102° (ESE) 06:07:04 435.120 FM
TMSAT-1 03 Sep 06:15:03 06:19:18 25° 299° (WNW) 06:23:33 436.925 FM
Hamsat 03 Sep 06:15:29 06:16:38 11° 86° (E) 06:17:45 145.90 MHz
AO-7 03 Sep 06:18:51 06:27:11 77° 107° (ESE) 06:35:28 29.400 - 29.500 MHz
AO-27 03 Sep 06:19:28 06:20:03 10° 310° (NW) 06:20:38 436.795 MHz FM
OPAL 03 Sep 06:44:24 06:47:01 14° 271° (W) 06:49:40 ?
UOSAT-12 03 Sep 06:47:15 06:51:49 53° 315° (NW) 06:56:28 437.025 FM, 437.400 FM
SO-50 03 Sep 06:52:06 06:54:42 15° 340° (NNW) 06:57:20 436.795 FM
STRAND 1 03 Sep 06:52:33 06:57:24 46° 68° (ENE) 07:02:16 ?
Saudisat 1A 03 Sep 06:57:03 07:01:30 83° 51° (NE) 07:05:55 436.775 MHz
RS-15 03 Sep 07:00:08 07:09:06 30° 105° (ESE) 07:17:56 29.354 - 29.394 USB, Beacon 29.352 USB
JAS-2 03 Sep 07:03:36 07:08:24 34° 97° (E) 07:13:31 435.800 - 435.900 CW/SSB, 435.910 FM
